Flag for U.S.A. Weather past 2 weeks in Madison, Wisconsin, U.S.A.

Now
70 °F

Clear.


Feels Like: 75 °F
Forecast: 65 / 80 °F
Wind: 5 mph from North

Location: Dane County Regional-Truax Field

Current Time: Jul 31, 2015 at 2:57:11 AM

Latest Report: Jul 31, 2015 at 1:53 AM


Visibility: 10 mi

Pressure: 30.00 "Hg

Humidity: 64%

Dew point: 57 °F

Location of MadisonLocation

Historic Weather in Madison — Graph

°F

Madison temperature yesterday

Maximum temperature yesterday: 86 °F (at 3:53 PM)
Minimum temperature yesterday: 65 °F (at 4:53 AM)
Average temperature yesterday: 76 °F

Past Weeks' High & Low Weather Summary

 TemperatureHumidityPressure
High90 °F (Jul 17, 5:53 PM)93% (Jul 16, 7:53 PM)30.03 "Hg (Jul 16, 7:53 PM)
Low58 °F (Jul 22, 5:53 AM)32% (Jul 29, 2:53 PM)29.70 "Hg (Jul 17, 1:53 AM)
Average75 °F67%29.91 "Hg
* Reported Jul 16 12:53 AM — Jul 31 12:53 AM, Madison, Weather by CustomWeather, © 2015

Note: Actual official high and low records may vary slightly from our data, if they occured in-between our weather recording intervals... More about our weather records

Advertising

Madison weather history for previous 24 hours

 ConditionsComfort  
Time TempWeatherWind HumidityBarometerVisibility
12:53 AM
Fri, Jul 31
70 °FClear.No wind61%30.00 "Hg10 mi
11:53 PM
Thu, Jul 30
71 °FClear.No wind57%30.00 "Hg10 mi
10:53 PM72 °FClear.3 mph55%30.00 "Hg10 mi
9:53 PM74 °FClear.3 mph52%30.00 "Hg10 mi
8:53 PM76 °FSunny.No wind48%29.99 "Hg10 mi
7:53 PM80 °FPassing clouds.3 mph44%29.97 "Hg10 mi
6:53 PM83 °FSunny.8 mph37%29.97 "Hg10 mi
5:53 PM85 °FPassing clouds.8 mph35%29.98 "Hg10 mi
4:53 PM85 °FPassing clouds.12 mph35%29.99 "Hg10 mi
3:53 PM86 °FPassing clouds.10 mph33%29.99 "Hg10 mi
2:53 PM85 °FScattered clouds.14 mph32%30.00 "Hg10 mi
1:53 PM85 °FScattered clouds.14 mph34%30.01 "Hg10 mi
12:53 PM84 °FScattered clouds.13 mph38%30.02 "Hg10 mi
11:53 AM83 °FPassing clouds.9 mph43%30.03 "Hg10 mi
10:53 AM80 °FSunny.9 mph47%30.03 "Hg10 mi
9:53 AM77 °FSunny.6 mph54%30.03 "Hg10 mi
8:53 AM73 °FSunny.6 mph59%30.03 "Hg10 mi
7:53 AM70 °FSunny.7 mph66%30.02 "Hg10 mi
6:53 AM67 °FSunny.7 mph68%30.02 "Hg10 mi
5:53 AM66 °FClear.6 mph70%30.00 "Hg10 mi
4:53 AM65 °FClear.6 mph73%30.00 "Hg10 mi
3:53 AM67 °FClear.7 mph68%29.99 "Hg10 mi
2:53 AM68 °FClear.7 mph65%29.99 "Hg10 mi
Weather by CustomWeather, © 2015

See weather overviewHow to use our weather pages